OPS 4682 DEB, 38373

Orbit data source: Space-Track

OPS 4682 DEB, 38373 is space debris in LEO originally from a launch on Sat, 03 Apr 1965 UTC launched from the Air Force Western Test Range (AFWTR). Debris objects in space refer to the collection of defunct objects orbiting the Earth. Examples of debris include non-operational satellites, rocket bodies, and fragments generated from explosions, collisions, or faulty payload assembly.

Loading next visibility...
Identifier
38373, 1965-027CA
Orbit
LEO
Country
Flag of USUS
Related business
Manufacturer
Unknown
Mission
Spacecraft
Bus & Motor
Unknown
Mass
Unknown
Launch date (UTC)
1965-04-03 (61 years ago)
Launch vehicle
Unknown
Launch site
Air Force Western Test Range (AFWTR)
Object type
Payload
Rocket body
Debris
Shape & HBR
Unknown shape, 0.1 m
Radar Cross Section
Small (<0.1 m²)

Expand to show TLE details & history
Last TLE update: 16 hours ago

TLE from 16 hours ago
0 OPS 4682 DEB
1 38373U 65027CA  25340.57821380  .00001245  00000-0  40511-2 0  9997
2 38373  90.2665  25.7076 0029439 337.1747  22.8065 13.00952164591997
Epoch: 2025-12-06T13:52Z
TLE epoch observation values (Epoch: 2025-12-06T13:52:37.672Z)
Latitude
-0.00003°
Longitude
101.94669°
Altitude
1,240.526 km
Speed
7.244 km/s
True Right ascension
01h 42m 49s
True Declination
0° 00' 00"
Sunlit
Object was in full shadow at epoch
Visualization orbit readout
Latitude
Unknown
Longitude
Unknown
Altitude
Unknown
Speed
Unknown
Apparent Right ascension
Unknown
Apparent Declination
Unknown
Sunlit
N/A
Visualization observer readout
Local Sidereal Time
03:31:05
Azimuth
Unknown
Elevation
Unknown
Doppler factor
Unknown
Orbital elements
Apogee altitude
1,277.956 km
Perigee altitude
1,233.011 km
Semi-major axis
7,633.621 km
Eccentricity
0.00294
Inclination
90.2665°
RAAN
25.7076°
Arg. of periapsis
337.1747°
True anomaly
22.93771°
Mean anomaly
22.8065°
Eccentric anomaly
22.87206°
Mean motion
3.25422 °/min
Orbital period
110.63 mins
BSTAR
0.0040511
Loading maneuver chart data...
Computing Atmospheric mass density...
Loading historical data...
Loading historical data...
Loading historical data...
Loading historical data...
Loading historical data...
Loading historical data...
Loading historical data...

Documentation

Showing up to 5 results
|